Weather in Alushta

Russia / Republic of Crimea     44˚40′35″N   34˚24′36″E
temp.,
°C
wind,
m/s
gust,
m/s
humid.,
%
clouds,
%
prec.,
mm/h
press.,
hPa
HPBL,
m
27 november, fri
fri2700:00+6˚se338692 0.0 1026406
03:00+6˚se228491 0.1 1027396
06:00+6˚s3483100 0.0 1026489
09:00+6˚s3484100 0.1 1025495
12:00+7˚s4585100 0.1 1025553
15:00+8˚s358299 0.1 1024601
18:00+8˚s458598 0.0 1024516
21:00+8˚s448499 0.1 1023561
28 november, sat
sat2800:00+7˚ssw248384 0.0 1023438
03:00+7˚s238479 0.0 1022435
06:00+7˚s138883 0.0 1022308
09:00+7˚s238791 0.0 1022381
12:00+8˚s138484 0.0 1021378
15:00+8˚sse138381 0.0 1020397
18:00+8˚s138674 0.0 1020351
21:00+8˚ssw128682 0.0 1020260
29 november, sun
sun2900:00+7˚sw128991 0.0 1020218
03:00+7˚w118994 0.0 1020142
06:00+7˚sw118585 0.0 1019124
09:00+7˚ssw128787 0.0 1020150
12:00+9˚sse128399 0.0 1020220
15:00+9˚ese0176100 0.0 1020151
18:00+8˚ne0173100 0.0 102089
21:00+8˚ne0176100 0.0 1020111
30 november, mon
mon3000:00+8˚n1182100 0.0 1020117
03:00+8˚nne1268100 0.0 102095
06:00+8˚ne1262100 0.0 101955
09:00+8˚ene1268100 0.0 1019169
12:00+9˚e1269100 0.0 1019155
15:00+10˚ese2261100 0.0 1018123
18:00+8˚e116797 0.0 1018133
21:00+8˚e116098 0.0 1018144
1 december, tue
tue100:00+7˚ne0161100 0.0 1018125
03:00+7˚ene0156100 0.0 1018130
06:00+6˚e126198 0.0 1018133
09:00+5˚ne127290 0.0 1019153
12:00+7˚e126442 0.0 1019285
15:00+8˚ese126521 0.0 1018364
18:00+6˚ene02771 0.0 1019259
21:00+5˚wsw128111 0.0 1020263